This demonstration page uses our WeatherBlox Daily Observations layout. Learn more.

Left ArrowRight Arrow

41.86663, -103.66717

Hourly Observations for July 15, 2017

Temp ( °F °C ) Dew Point ( °F °C ) Humidity (%) Winds ( mph kmh ) Pressure ( in mb ) Visibility ( mi km ) Precip ( " mm )
12:53 am 00:53 Clear 67 19.4 57 13.9 71 71 ESE 8 13 30.11 1020 10 16 0.00 0.00
1:53 am 01:53 Clear 69 20.6 58 14.4 68 68 ESE 8 13 30.11 1020 10 16 0.00 0.00
2:53 am 02:53 Clear 68 20 59 15 73 73 ESE 8 13 30.10 1019 10 16 0.00 0.00
3:53 am 03:53 Clear 66 18.9 60 15.6 81 81 E 6 9 30.09 1019 10 16 0.00 0.00
4:53 am 04:53 Clear 66 18.9 60 15.6 81 81 E 5 7 30.10 1019 10 16 0.00 0.00
5:53 am 05:53 Sunny 65 18.3 60 15.6 84 84 undefined N/A 30.12 1020 10 16 0.00 0.00
6:53 am 06:53 Sunny 66 18.9 60 15.6 81 81 undefined N/A 30.13 1020 10 16 0.00 0.00
7:53 am 07:53 Sunny 69 20.6 61 16.1 76 76 E 5 7 30.15 1021 10 16 0.00 0.00
8:53 am 08:53 Sunny 74 23.3 62 16.7 67 67 Calm 30.16 1021 10 16 0.00 0.00
9:53 am 09:53 Sunny 81 27.2 60 15.6 49 49 S 3 6 30.14 1021 10 16 0.00 0.00
10:53 am 10:53 Sunny 87 30.6 56 13.3 35 35 VRB 5 7 30.12 1020 10 16 0.00 0.00
11:53 am 11:53 Sunny 90 32.2 52 11.1 27 27 ESE 9 15 30.09 1019 10 16 0.00 0.00
12:53 pm 12:53 Sunny 91 32.8 48 8.9 23 23 ESE 12 19 30.09 1019 10 16 0.00 0.00
1:53 pm 13:53 Sunny 92 33.3 50 10 24 24 ESE 14 22 30.06 1018 10 16 0.00 0.00
2:53 pm 14:53 Sunny 94 34.4 49 9.4 21 21 ESE 13 20 30.05 1018 10 16 0.00 0.00
3:53 pm 15:53 Sunny 93 33.9 49 9.4 22 22 SE 20 31 30.04 1017 10 16 0.00 0.00
4:53 pm 16:53 Sunny 93 33.9 48 8.9 21 21 SE 17 28 30.03 1017 10 16 0.00 0.00
5:53 pm 17:53 Sunny 91 32.8 50 10 25 25 SE 17 28 30.03 1017 10 16 0.00 0.00
6:53 pm 18:53 Sunny 89 31.7 50 10 26 26 SE 13 20 30.03 1017 10 16 0.00 0.00
7:53 pm 19:53 Sunny 85 29.4 51 10.6 31 31 ESE 9 15 30.02 1017 10 16 0.00 0.00
8:53 pm 20:53 Clear 75 23.9 55 12.8 50 50 E 7 11 30.03 1017 10 16 0.00 0.00
9:53 pm 21:53 Clear 75 23.9 54 12.2 48 48 S 3 6 30.04 1017 10 16 0.00 0.00
10:53 pm 22:53 Clear 75 23.9 57 13.9 54 54 SSW 7 11 30.04 1017 10 16 0.00 0.00
11:53 pm 23:53 Clear 74 23.3 54 12.2 50 50 SW 8 13 30.04 1017 10 16 0.00 0.00

Powered by AerisWeather